Вернуться в каталог

STARLINK-30355

АктивенСвязьVLEO
NORAD 57777·PAYLOAD·🇺🇸 United States

Запущен Sep 4, 2023 с Cape Canaveral Space Force Station

Loading…

Ближайшие Пролёты (ближайшие 24 часа)

TLE

СвежийSource: CelesTrak SupGP

Эпоха: Sep 14, 2026, 21:30 UTC

1 57777C 23134G   26257.89631944  .00019177  00000+0  69464-3 0  2575
2 57777  43.0010 209.4401 0001224 250.0727  59.0034 15.27566558    17

Отслеживайте STARLINK-30355 в реальном времени с AllMySat

Download on the App Store